Regional Weather Roundup
Issued by NWS Northern Indiana

Home | Current Version | Previous Version | Text Only | Print | Product List | Glossary Off
Versions: 1 2 3 4 5 6 7 8 9 10 11 12 13 14 15 16 17 18 19 20 21 22 23 24 25 26 27 28 29 30 31 32 33 34 35 36 37 38 39 40 41 42 43 44 45 46 47 48 49 50

170
ASUS43 KIWX 060010
RWRIWX

KIWX WEATHER ROUNDUP
NATIONAL WEATHER SERVICE NORTHERN INDIANA
700 PM EST FRI FEB 05 2016

NOTE: "FAIR" INDICATES FEW OR NO CLOUDS BELOW 12,000 FEET WITH NO
SIGNIFICANT WEATHER AND/OR OBSTRUCTIONS TO VISIBILITY.

* THESE STATIONS ARE NOT UNDER NWS QUALITY CONTROL. THEY ALSO MAY NOT
  REPORT WEATHER SUCH AS PRECIPITATION OR FOG.

INZ001>027-060100-
NORTHERN INDIANA

CITY           SKY/WX    TMP DP  RH WIND       PRES   REMARKS
GARY*          CLOUDY    32  21  64 W8        30.38R WCI  25
VALPARAISO     CLOUDY    30  23  75 NW3       30.37R
6HR MIN TEMP:  30; 6HR MAX TEMP:  33;

MICHIGAN CITY* CLOUDY    30  25  80 CALM      30.38R
LAPORTE*       CLOUDY    31  27  84 NW5       30.37R WCI  26
6HR MIN TEMP:  31; 6HR MAX TEMP:  34;

SOUTH BEND     CLOUDY    28  23  81 NW7       30.36R WCI  21
6HR MIN TEMP:  28; 6HR MAX TEMP:  33; 6HR PCP:  0.01;

ELKHART*         N/A     30  25  80 NW7       30.36R WCI  23
GOSHEN         CLOUDY    30  25  81 NW8       30.34R WCI  22
6HR MIN TEMP:  30; 6HR MAX TEMP:  34; 6HR PCP: TRACE;

MONTICELLO*    CLOUDY    30  22  72 W6        30.38R WCI  24
6HR MIN TEMP:  30; 6HR MAX TEMP:  32;

LOGANSPORT*    CLOUDY    30  23  74 W7        30.38R WCI  23
ROCHESTER*     CLOUDY    32  27  80 W6        30.37R WCI  26
WARSAW*        CLOUDY    30  28  93 NW7       30.35R WCI  23
ANGOLA*        CLOUDY    30  27  86 W6        30.31R WCI  24
FORT WAYNE     CLOUDY    31  23  72 W10       30.35R WCI  22
6HR MIN TEMP:  31; 6HR MAX TEMP:  37;

HUNTINGTON*    CLOUDY    30  19  62 W7        30.36R WCI  23
6HR MIN TEMP:  30; 6HR MAX TEMP:  37;

PERU/GRISSOM   CLOUDY    29  24  82 W6        30.35R WCI  23
6HR MIN TEMP:  29; 6HR MAX TEMP:  33;

MARION*        CLOUDY    30  18  61 W7        30.37S WCI  23
6HR MIN TEMP:  -1; 6HR MAX TEMP:  59;


$$
INZ028>050-060100-
CENTRAL INDIANA

CITY           SKY/WX    TMP DP  RH WIND       PRES   REMARKS
LAFAYETTE      PTCLDY    27  21  78 W7        30.39S WCI  19
6HR MIN TEMP:  27; 6HR MAX TEMP:  32;

KOKOMO*        PTCLDY    30  21  69 W9        30.37R WCI  22
6HR MIN TEMP:  30; 6HR MAX TEMP:  36;

MUNCIE*        CLOUDY    32  23  69 NW8       30.36R WCI  25
6HR MIN TEMP:  32; 6HR MAX TEMP:  41;

INDIANAPOLIS   PTCLDY    29  23  78 NW9       30.36R WCI  20
6HR MIN TEMP:  29; 6HR MAX TEMP:  41;


$$
MIZ043>046-050>051-056>058-064>065-071>073-077>080-060100-
SOUTHWEST LOWER MICHIGAN

CITY           SKY/WX    TMP DP  RH WIND       PRES   REMARKS
BATTLE CREEK   CLOUDY    30  25  81 NW9       30.32R WCI  22
6HR MIN TEMP:  30; 6HR MAX TEMP:  34; 6HR PCP:  0.01;

BENTON HARBOR  MOCLDY    30  21  69 VRB5      30.36R WCI  25
6HR MIN TEMP:  30; 6HR MAX TEMP:  33; 6HR PCP:  0.01;

COLDWATER*     FLURRIES  31  28  90 W7        30.31S WCI  24
6HR MIN TEMP:  31; 6HR MAX TEMP:  36;

HILLSDALE*     CLOUDY    30  24  79 SW5       30.29S WCI  25
6HR MIN TEMP:  30; 6HR MAX TEMP:  36;

HOLLAND        CLOUDY    28  20  71 W3        30.35R
6HR MIN TEMP:  28; 6HR MAX TEMP:  32; 6HR PCP: TRACE;

GRAND RAPIDS   MOCLDY    28  19  69 W8        30.32R WCI  20
6HR MIN TEMP:  27; 6HR MAX TEMP:  32; 6HR PCP:  0.01;

KALAMAZOO      CLOUDY    30  23  75 W7        30.33R WCI  23
6HR MIN TEMP:  30; 6HR MAX TEMP:  35; 6HR PCP:  0.01;

STURGIS*       FLURRIES  29  27  90 CALM      30.32R
6HR MIN TEMP:  29; 6HR MAX TEMP:  32;

THREE RIVERS*  CLOUDY    30  26  86 NW9       30.34R WCI  22
6HR MIN TEMP:  30; 6HR MAX TEMP:  34;


$$
OHZ001>008-015>018-024>025-060100-
NORTHWEST OHIO

CITY           SKY/WX    TMP DP  RH WIND       PRES   REMARKS
DEFIANCE       CLOUDY    34  24  67 VRB5      30.34R WCI  30
6HR MIN TEMP:  34; 6HR MAX TEMP:  41;

FINDLAY        CLOUDY    36  24  62 S8        30.31S
6HR MIN TEMP:  36; 6HR MAX TEMP:  41;

TOLEDO EXPRESS CLOUDY    35  24  64 W13       30.32R WCI  26
6HR MIN TEMP:  35; 6HR MAX TEMP:  40;

TOLEDO METCALF CLOUDY    36  22  56 S7        30.32S
6HR MIN TEMP:  36; 6HR MAX TEMP:  41;

LIMA           CLOUDY    34  26  72 W10       30.32R WCI  26
6HR MIN TEMP:  34; 6HR MAX TEMP:  39;


$$
AND FOR LAKE MICHIGAN COASTAL AND OPEN LAKE BUOY OBSERVATIONS

STATION/POSITION TEMP    WIND        PRES    VSBY  WAVE
                 AIR SEA DIR/SP/G                  HT/PER
                 (F)     (DEG/KT/KT) (MB)    (MI)  (FT/S)
MICHIGAN CITY     30     320/  5/  6   N/A
BURNS HARBOR      30     300/  2/  3 1028.8R
SAINT JOSEPH      31     300/  6/  8 1028.8R

$$
&&




USA.gov is the U.S. government's official web portal to all federal, state and local government web resources and services.